Change the Weather History Date:

Thursday, June 27, 2013

  Actual Average Record
Temperature  
Mean Temperature 80 °F 74 °F  
Max Temperature 89 °F 85 °F 93 °F (1998)
Min Temperature 71 °F 63 °F 52 °F (2003)
Degree Days  
Heating Degree Days 0 0  
Month to date heating degree days 13 14  
Since 1 June heating degree days 13 14  
Since 1 July heating degree days 5651 5820  
Cooling Degree Days 15 9  
Month to date cooling degree days 200 195  
Year to date cooling degree days 332 287  
Since 1 June cooling degree days 200 195  
Growing Degree Days 30 (Base 50)    
Moisture  
Dew Point 72 °F    
Average Humidity 78    
Maximum Humidity 100    
Minimum Humidity 55    
Precipitation  
Precipitation 0.02 in 0.11 in 1.83 in (1951)
Month to date precipitation 2.92 3.86  
Year to date precipitation 18.60 19.02  
Sea Level Pressure  
Sea Level Pressure 29.79 in    
Wind  
Wind Speed 10 mph (West)    
Max Wind Speed 16 mph    
Max Gust Speed 24 mph    
Visibility 5 miles    
Events Fog , Rain    
T = Trace of Precipitation, MM = Missing Value Source: NWS Daily Summary

Daily Weather History Graph

Daily Weather History Graph

Search for Another Location

Airport or City:

Trip Planner

Search our weather history database for the weather conditions in past years. The results will help you decide how hot, cold, wet, or windy it might be!

Date:

Astronomy

Jun. 27, 2013 Rise Set
Actual Time 5:26 AM CDT 8:26 PM CDT
Civil Twilight 4:53 AM CDT 8:58 PM CDT
Nautical Twilight 4:11 AM CDT 9:40 PM CDT
Astronomical Twilight 3:23 AM CDT 10:29 PM CDT
Moon 11:23 PM CDT (6/27) 10:27 AM CDT (6/27)
Length of Visible Light 16h 05m
Length of Day
14h 59m
Waning Gibbous, 76% of the Moon is Illuminated
Jun 27
Waning Gibbous
Jun 29
Last Quarter
Jul 8
New
Jul 15
First Quarter
Jul 22
Full

Hourly Weather History & Observations

Time (CDT) Temp. Heat Index Dew Point Humidity Pressure Visibility Wind Dir Wind Speed Gust Speed Precip Events Conditions
12:32 AM 73.4 °F - 73.4 °F 100% 29.80 in 1.8 mi SSW 4.6 mph - N/A   Overcast
12:43 AM 73.4 °F - 73.4 °F 100% 29.80 in 0.5 mi SSW 4.6 mph - N/A Fog Fog
12:53 AM 73.0 °F - 73.0 °F 100% 29.77 in 0.5 mi SSW 6.9 mph - 0.00 in Fog , Rain Light Rain
1:03 AM 73.4 °F - 73.4 °F 100% 29.79 in 0.2 mi SW 6.9 mph - 0.00 in Fog Fog
1:53 AM 73.0 °F - 73.0 °F 100% 29.77 in 0.5 mi West 5.8 mph - 0.00 in Fog Fog
2:08 AM 73.4 °F - 73.4 °F 100% 29.78 in 0.5 mi West 6.9 mph - N/A Fog Fog
2:30 AM 73.4 °F - 73.4 °F 100% 29.79 in 1.0 mi West 4.6 mph - N/A   Mist
2:47 AM 73.4 °F - 73.4 °F 100% 29.79 in 2.0 mi West 4.6 mph - 0.02 in Rain Light Rain
2:53 AM 73.9 °F - 73.0 °F 97% 29.78 in 2.5 mi West 4.6 mph - 0.02 in Rain Light Rain
3:20 AM 73.4 °F - 73.4 °F 100% 29.79 in 1.5 mi WSW 4.6 mph - 0.00 in   Overcast
3:26 AM 73.4 °F - 73.4 °F 100% 29.79 in 1.5 mi West 5.8 mph - 0.00 in   Mostly Cloudy
3:33 AM 73.4 °F - 73.4 °F 100% 29.79 in 2.0 mi WSW 6.9 mph - 0.00 in   Scattered Clouds
3:44 AM 73.4 °F - 73.4 °F 100% 29.79 in 2.0 mi West 5.8 mph - 0.00 in   Mostly Cloudy
3:51 AM 73.4 °F - 73.4 °F 100% 29.79 in 1.8 mi West 5.8 mph - 0.00 in   Mostly Cloudy
3:53 AM 73.9 °F - 73.0 °F 97% 29.77 in 1.8 mi West 5.8 mph - 0.00 in   Mostly Cloudy
4:47 AM 73.4 °F - 73.4 °F 100% 29.80 in 0.5 mi West 8.1 mph - N/A Fog Fog
4:51 AM 73.4 °F - 73.4 °F 100% 29.80 in 0.2 mi West 8.1 mph - N/A Fog Fog
4:53 AM 73.9 °F - 73.0 °F 97% 29.78 in 0.2 mi West 6.9 mph - N/A Fog Fog
5:01 AM 73.4 °F - 73.4 °F 100% 29.81 in 0.2 mi West 6.9 mph - N/A Fog Fog
5:53 AM 73.9 °F - 73.9 °F 100% 29.79 in 0.2 mi West 6.9 mph - N/A Fog Fog
6:37 AM 73.4 °F - 73.4 °F 100% 29.81 in 0.1 mi West 9.2 mph - N/A Fog Fog
6:53 AM 73.9 °F - 73.9 °F 100% 29.79 in 0.5 mi West 9.2 mph - N/A Fog Fog
7:10 AM 75.2 °F - 73.4 °F 94% 29.81 in 2.0 mi West 8.1 mph - N/A   Overcast
7:53 AM 75.9 °F - 75.0 °F 97% 29.79 in 3.0 mi WNW 10.4 mph - N/A   Overcast
8:53 AM 77.0 °F - 75.0 °F 94% 29.80 in 3.0 mi WNW 12.7 mph 21.9 mph N/A   Overcast
9:29 AM 80.6 °F 86.2 °F 75.2 °F 84% 29.82 in 6.0 mi NW 10.4 mph - N/A   Haze
9:45 AM 80.6 °F 86.2 °F 75.2 °F 84% 29.82 in 7.0 mi NW 11.5 mph - N/A   Scattered Clouds
9:53 AM 81.0 °F 86.7 °F 75.0 °F 82% 29.81 in 7.0 mi NW 8.1 mph - N/A   Mostly Cloudy
10:53 AM 84.0 °F 91.2 °F 73.9 °F 72% 29.82 in 10.0 mi NW 15.0 mph 21.9 mph N/A   Scattered Clouds
11:53 AM 84.9 °F 91.4 °F 73.0 °F 67% 29.82 in 10.0 mi NW 10.4 mph 20.7 mph N/A   Scattered Clouds
12:53 PM 87.1 °F 92.8 °F 71.1 °F 59% 29.83 in 10.0 mi WNW 12.7 mph 24.2 mph N/A   Partly Cloudy
1:53 PM 88.0 °F 94.7 °F 72.0 °F 59% 29.83 in 10.0 mi WNW 16.1 mph 21.9 mph N/A   Clear
2:53 PM 87.1 °F 91.3 °F 69.1 °F 55% 29.83 in 10.0 mi WNW 13.8 mph 23.0 mph N/A   Clear
3:48 PM 89.6 °F 94.7 °F 69.8 °F 52% 29.84 in 10.0 mi NW 13.8 mph - N/A   Partly Cloudy
3:53 PM 88.0 °F 92.9 °F 70.0 °F 55% 29.82 in 10.0 mi NW 12.7 mph - N/A   Partly Cloudy
4:53 PM 86.0 °F 91.5 °F 71.1 °F 61% 29.80 in 10.0 mi West 10.4 mph - N/A   Mostly Cloudy
5:53 PM 84.9 °F 88.2 °F 68.0 °F 57% 29.77 in 10.0 mi West 11.5 mph 20.7 mph N/A   Clear
6:53 PM 82.9 °F 87.0 °F 70.0 °F 65% 29.75 in 10.0 mi West 11.5 mph - N/A   Clear
7:53 PM 80.1 °F 82.9 °F 69.1 °F 69% 29.75 in 10.0 mi West 9.2 mph - N/A   Clear
8:53 PM 75.9 °F - 68.0 °F 76% 29.73 in 10.0 mi West 6.9 mph - N/A   Clear
9:53 PM 73.9 °F - 69.1 °F 85% 29.75 in 10.0 mi West 8.1 mph - N/A   Clear
10:53 PM 72.0 °F - 68.0 °F 87% 29.77 in 10.0 mi West 6.9 mph - N/A   Clear
11:53 PM 71.1 °F - 68.0 °F 90% 29.79 in 10.0 mi West 8.1 mph - N/A   Clear